Showing default

OPS 9334 (DATS), 2865

Orbit data source: Space-Track

OPS 9334 (DATS), 2865 is a payload satellite owned by SAMSO (US) in GEO that was launched on Sat, 01 Jul 1967 UTC via a TITAN IIIC launch vehicle from the Air Force Eastern Test Range (AFETR). Payload-class satellites include a variety of spacecraft equipped with specific instruments for various scientific and technological missions. These include communications satellites like Starlink; space stations such as the ISS; scientific satellites like the Hubble; Earth observation satellites from companies like Planet Labs, Umbra, and HawkEye 360; GPS; miniature CubeSats for education and research; and military/defense satellites.

Not visible in the next 10 days
Identifier
2865, 1967-066D
Orbit
GEO
Country
Flag of USUS
Related business
Manufacturer
Philco-Ford WDL
Mission
Non-operational spacecraft
Bus & Motor
IDCSP, Unknown motor
Mass
68 kg wet, 68 kg dry
Launch date (UTC)
1967-07-01 (59 years ago)
Launch vehicle
TITAN IIIC
Launch site
Air Force Eastern Test Range (AFETR)
Object type
Payload
Rocket body
Debris
Shape & HBR
POLY, 1.1 m
Radar Cross Section
Medium (>0.1 m² and <1 m²)

Expand to show TLE details & history
Last TLE update: 14 hours ago

TLE from 14 hours ago
0 OPS 9334 (DATS)
1 02865U 67066D   26254.65545515 -.00000077  00000-0  00000-0 0  9996
2 02865   2.9169  93.1841 0053668 229.8936 277.4556  1.09624048131110
Epoch: 2026-09-11T15:43Z
TLE epoch observation values (Epoch: 2026-09-11T15:43:51.324Z)
Latitude
1.6256°
Longitude
13.31369°
Altitude
33,326.502 km
Speed
3.17 km/s
True Right ascension
15h 59m 48s
True Declination
1° 37' 26"
Sunlit
Object was in daylight at epoch
Visualization orbit readout
Latitude
Unknown
Longitude
Unknown
Altitude
Unknown
Speed
Unknown
Apparent Right ascension
Unknown
Apparent Declination
Unknown
Sunlit
N/A
Visualization observer readout
Local Sidereal Time
21:44:34
Azimuth
Unknown
Elevation
Unknown
Doppler factor
Unknown
Orbital elements
Apogee altitude
33,567.391 km
Perigee altitude
33,140.92 km
Semi-major axis
39,732.292 km
Eccentricity
0.00537
Inclination
2.9169°
RAAN
93.1841°
Arg. of periapsis
229.8936°
True anomaly
276.84529°
Mean anomaly
277.4556°
Eccentric anomaly
277.1505°
Mean motion
0.27405 °/min
Orbital period
1,313.64 mins
BSTAR
0
Loading maneuver chart data...
Computing Atmospheric mass density...
Loading historical data...
Loading historical data...
Loading historical data...
Loading historical data...
Loading historical data...
Loading historical data...
Loading historical data...

Documentation

Showing up to 5 results
|